{"data":{"norad_id":60738,"intl_designator":"2024-152U","name":"STARLINK-32304","alt_names":[],"object_type":"PAYLOAD","status":"ACTIVE","operator":null,"country":"US","launch_date":"2024-08-28","launch_site_code":"AFETR","launch_vehicle":null,"mission":null,"orbit_class":"UNKNOWN","rcs_meters":null,"size_class":null,"mass_kg":null,"dimensions":null,"purposes":["comms"],"wikipedia_slug":null,"has_3d_model":false,"image_url":null,"decayed_at":null,"tle_current":{"epoch":"2026-09-21T19:08:57.537888Z","epoch_age_seconds":76373,"freshness":"FRESH","line1":"1 60738U 24152U   26264.79788817 -.00001203  00000+0 -24496-4 0  9999","line2":"2 60738  53.1596  75.5550 0001154 102.1503 257.9629 15.34390383116901","mean_motion":15.34390383,"eccentricity":0.0001154,"inclination_deg":53.1596,"raan_deg":75.555,"arg_perigee_deg":102.1503,"mean_anomaly_deg":257.9629,"bstar":-2.4496e-5,"rev_number":11690,"period_min":93.848346284897,"perigee_km":461.94238784479,"apogee_km":463.52126036939,"semimajor_km":6840.8688241071,"source":"CELESTRAK","updated_at":"2026-09-22T09:00:49.281149Z"}}}